Location: ????????
(55.5667°N, 37.5833°E)
Time: 17:50:08
(UTC+00:00)

Cosmos 2237 - Pass Details

Date: 14 April 2026
Orbit: 845 x 857 km, 70.8° (Epoch: 16 May)

Event Time Altitude Azimuth Distance (km) Brightness Sun altitude
Rises 23:28:19 0° 325° (NW) 3,436 7.7 -20.2°
Reaches altitude 10° 23:30:46 10° 326° (NW) 2,498 6.9 -20.0°
Maximum altitude 23:36:32 85° 55° (NE) 867 4.2 -19.6°
Drops below altitude 10° 23:42:17 10° 145° (SE) 2,488 6.4 -19.1°
Sets 23:44:44 0° 146° (SE) 3,422 7.2 -18.9°
